FW8630 Weather Reports


time (UTC)temp
C
wind
direction
speed
KPH
gust
KPH
rain 1hr
cm
rain 24hr
cm
rain mn
cm
humidity
%
barometer
mb
20260905181548 15 237 4.8 14.5 0.00 0.13 0.00 93 1005.9
20260905180054 15 284 1.6 12.9 0.00 0.13 0.00 93 1005.8
20260905174552 15 253 3.2 11.3 0.00 0.13 0.00 93 1005.8
20260905173058 15 259 3.2 11.3 0.00 0.13 0.00 93 1005.6
20260905171542 15 217 1.6 12.9 0.00 0.13 0.00 93 1005.4
20260905170041 15 272 1.6 11.3 0.00 0.13 0.00 92 1005.4
20260905164541 15 240 3.2 16.1 0.00 0.13 0.00 92 1005.4
20260905163040 15 221 4.8 14.5 0.00 0.13 0.00 92 1005.2
20260905161537 15 297 1.6 12.9 0.00 0.13 0.00 90 1005.0
20260905160036 15 269 1.6 9.7 0.00 0.13 0.00 89 1004.8
20260905154536 16 249 3.2 8.0 0.00 0.13 0.00 90 1004.6
20260905153034 15 284 1.6 6.4 0.00 0.13 0.00 89 1004.5
20260905151533 15 286 1.6 11.3 0.00 0.13 0.00 91 1004.2
20260905150032 15 232 0.0 6.4 0.00 0.13 0.00 91 1004.3
20260905144532 15 287 0.0 6.4 0.00 0.13 0.00 90 1004.5
20260905143036 15 267 0.0 9.7 0.00 0.13 0.00 90 1004.4
20260905141531 15 263 4.8 12.9 0.00 0.13 0.00 88 1004.4
20260905140032 16 258 3.2 12.9 0.00 0.13 0.00 88 1004.5
20260905134535 16 215 4.8 12.9 0.00 0.13 0.00 88 1004.5
20260905133029 15 283 1.6 6.4 0.00 0.13 0.00 88 1004.4
20260905131528 16 269 3.2 12.9 0.00 0.13 0.00 87 1004.2
20260905130025 16 11 3.2 8.0 0.00 0.13 0.00 87 1003.8
20260905124533 16 294 1.6 11.3 0.00 0.13 0.00 87 1003.8
20260905123022 15 257 3.2 14.5 0.00 0.13 0.00 86 1003.6
20260905121521 16 301 3.2 14.5 0.00 0.13 0.00 85 1003.6
20260905120019 16 276 4.8 14.5 0.00 0.13 0.00 85 1003.4
20260905114517 16 284 3.2 14.5 0.00 0.13 0.00 85 1003.3
20260905113014 16 267 4.8 16.1 0.00 0.13 0.00 86 1003.0
20260905111513 16 280 4.8 14.5 0.00 0.13 0.00 87 1002.9
20260905110010 15 271 4.8 16.1 0.00 0.15 0.00 88 1002.8
20260905104510 15 277 4.8 20.9 0.00 0.15 0.00 89 1002.7
20260905103006 15 282 4.8 19.3 0.00 0.15 0.00 88 1002.4
20260905101502 15 319 6.4 22.5 0.00 0.15 0.00 87 1002.2
20260905100002 15 327 6.4 19.3 0.00 0.15 0.00 87 1002.0
20260905094558 15 288 8.0 22.5 0.00 0.15 0.00 87 1001.8
20260905093110 15 290 4.8 19.3 0.00 0.15 0.00 88 1001.7
20260905091603 14 315 8.0 19.3 0.00 0.15 0.00 89 1001.6
20260905090051 14 321 9.7 25.7 0.00 0.15 0.00 89 1001.3
20260905084549 14 286 4.8 22.5 0.00 0.15 0.00 89 1001.1
20260905083047 14 309 4.8 20.9 0.00 0.15 0.00 89 1001.0
20260905081546 14 300 6.4 20.9 0.00 0.15 0.00 90 1000.7
20260905080042 13 238 6.4 25.7 0.00 0.23 0.00 90 1000.4
20260905074541 13 272 8.0 22.5 0.00 0.23 0.00 89 1000.2
20260905073040 13 327 6.4 25.7 0.00 0.23 0.00 90 999.9
20260905071537 13 292 8.0 27.4 0.00 0.23 0.00 90 1000.0
20260905070041 13 313 6.4 14.5 0.00 0.23 0.00 89 999.8
20260905064535 13 316 11.3 29.0 0.00 0.23 0.00 89 999.6
20260905063032 13 274 6.4 27.4 0.00 0.23 0.00 90 999.4
20260905061530 13 302 9.7 27.4 0.00 0.23 0.00 90 999.2
20260905060027 13 269 8.0 22.5 0.00 0.23 0.00 89 998.9
20260905054532 13 215 6.4 27.4 0.00 0.23 0.00 89 998.7
20260905053023 13 288 3.2 17.7 0.00 0.23 0.00 89 998.6
20260905051522 13 272 8.0 24.1 0.00 0.23 0.00 89 998.5
20260905050023 13 296 4.8 19.3 0.00 0.23 0.00 89 998.4
20260905044518 13 275 4.8 20.9 0.00 0.23 0.00 89 998.2
20260905043018 13 267 6.4 17.7 0.00 0.23 0.00 89 998.2
20260905041513 13 267 6.4 25.7 0.00 0.23 0.00 88 998.0
20260905040017 13 254 6.4 19.3 0.00 0.23 0.00 88 997.9
20260905034519 13 227 3.2 17.7 0.00 0.23 0.00 88 997.7
20260905033007 13 236 4.8 17.7 0.00 0.23 0.00 89 997.6
20260905031505 13 265 6.4 17.7 0.00 0.23 0.00 88 997.6
20260905030003 14 257 6.4 17.7 0.00 0.23 0.00 89 997.5
20260905024604 14 255 4.8 19.3 0.00 0.23 0.00 89 997.4
20260905023101 14 252 4.8 17.7 0.00 0.23 0.00 89 997.4
20260905021559 14 246 6.4 19.3 0.00 0.23 0.00 89 997.3
20260905020057 14 275 4.8 17.7 0.00 0.25 0.00 89 997.1
20260905014559 14 232 4.8 17.7 0.00 0.25 0.00 89 997.2
20260905013059 15 267 1.6 20.9 0.00 0.25 0.00 88 997.1
20260905011553 15 269 8.0 20.9 0.00 0.25 0.00 88 997.2
20260905003038 14 263 3.2 14.5 0.00 0.25 0.00 88 996.9
20260904234522 15 280 1.6 16.1 0.00 0.30 0.00 87 996.9
20260904233020 14 277 3.2 11.3 0.00 0.30 0.00 87 997.0
20260904231519 14 279 1.6 16.1 0.00 0.30 0.00 87 996.9
20260904230029 14 235 1.6 12.9 0.00 0.30 0.00 87 997.0
20260904224525 14 225 1.6 14.5 0.00 0.30 0.00 87 997.1
20260904223015 14 284 3.2 16.1 0.00 0.30 0.00 86 997.1
20260904221519 14 222 3.2 14.5 0.00 0.30 0.00 86 997.2
20260904220011 14 275 6.4 16.1 0.00 0.33 0.30 87 997.1
20260904214517 14 252 6.4 16.1 0.00 0.33 0.30 87 997.3
20260904213010 14 252 4.8 11.3 0.00 0.33 0.30 87 997.3
20260904211508 14 272 4.8 14.5 0.00 0.33 0.30 87 997.2
20260904210008 14 248 3.2 12.9 0.03 0.36 0.30 88 997.3
20260904204511 14 257 3.2 8.0 0.05 0.36 0.30 88 997.3
20260904203007 14 244 3.2 9.7 0.10 0.36 0.30 88 997.4
20260904201503 14 240 3.2 12.9 0.13 0.36 0.30 88 997.7
20260904200006 14 244 3.2 16.1 0.10 0.33 0.28 89 997.8
20260904194503 14 244 3.2 12.9 0.08 0.33 0.25 90 997.8
20260904193002 14 254 3.2 8.0 0.03 0.25 0.20 91 997.9
20260904191559 14 238 4.8 14.5 0.00 0.23 0.18 93 998.1
20260904190059 15 233 6.4 14.5 0.00 0.23 0.18 93 998.2
20260904184557 15 243 6.4 14.5 0.00 0.23 0.18 93 998.2
20260904183113 15 257 6.4 14.5 0.00 0.23 0.18 92 998.3